Regional Weather Roundup
Issued by NWS

Current Version | Previous Version | Text Only | Print | Product List | Glossary On
Versions: 1 2 3 4 5 6 7 8 9 10 11 12 13 14 15 16 17 18 19 20 21 22 23 24 25 26 27 28 29 30 31 32 33 34 35 36 37 38 39 40 41 42 43 44 45 46 47 48 49 50
000
ASUS44 KBMX 030210
RWRAL

ALABAMA REGIONAL WEATHER ROUNDUP
NATIONAL WEATHER SERVICE BIRMINGHAM AL
900 PM CDT SUN AUG 02 2015

NOTE: "FAIR" INDICATES FEW OR NO CLOUDS BELOW 12,000 FEET
WITH NO SIGNIFICANT WEATHER AND/OR OBSTRUCTIONS TO VISIBILITY.

THE REMARK "TC" DENOTES TEMPERATURE IN DEGREES CELSIUS.

ALZ001>011-014-016>018-020-030300-
NORTH ALABAMA

CITY           SKY/WX    TMP DP  RH WIND       PRES   REMARKS
MUSCLE SHOALS  PTCLDY    73  64  73 N3        29.91F
HUNTSVILLE     MOCLDY    77  63  61 CALM      29.90S
DECATUR        MOCLDY    73  64  73 NE3       29.91S
HALEYVILLE     FAIR      73  67  81 CALM      29.95S
GADSDEN        PTCLDY    79  54  41 CALM      29.89R
$$

ALZ012-013-022-023-030>036-040>044-030300-
WEST CENTRAL ALABAMA

CITY           SKY/WX    TMP DP  RH WIND       PRES   REMARKS
TUSCALOOSA     CLEAR     81  67  62 CALM      29.87R
$$

ALZ015-024>027-033>036-040>044-030300-
CENTRAL ALABAMA

CITY           SKY/WX    TMP DP  RH WIND       PRES   REMARKS
BIRMINGHAM     PTCLDY    79  58  48 CALM      29.91R
MONTGOMERY     CLEAR     80  70  71 CALM      29.85S
SHELBY CO ARPT CLEAR     77  70  79 CALM      29.89R
MAXWELL AFB    CLEAR     81  71  71 NW3       29.85R
GREENVILLE     NOT AVBL
$$

ALZ019-021-028-029-037-038-045>048-030300-
EAST CENTRAL ALABAMA

CITY           SKY/WX    TMP DP  RH WIND       PRES   REMARKS
ANNISTON       PTCLDY    76  68  76 CALM      29.89R
ALEXANDER CITY CLEAR     77  64  63 CALM      29.89R
AUBURN         MOCLDY    82  72  69 CALM      29.90S
$$

ALZ051>064-030300-
SOUTHWEST ALABAMA

CITY           SKY/WX    TMP DP  RH WIND       PRES   REMARKS
MOBILE         PTCLDY    83  77  82 SW6       29.87S HX  92
BROOKLEY FIELD CLEAR     83  74  74 W3        29.87R
EVERGREEN      CLEAR     78  69  73 CALM      29.87R
$$

ALZ049-050-065>069-030300-
SOUTHEAST ALABAMA

CITY           SKY/WX    TMP DP  RH WIND       PRES   REMARKS
DOTHAN         CLEAR     82  72  71 CALM      29.90R
OZARK          CLEAR     81  73  76 CALM      29.86R
TROY           PTCLDY    79  77  94 CALM      29.87R
EUFAULA        FAIR      78  75  90 CALM      29.85R
$$



USA.gov is the U.S. government's official web portal to all federal, state and local government web resources and services.